User: anonymous   Login
Location: Byszew
(52.1813°N, 19.2693°E)
Time: 17:52:43
(UTC+00:00)
Language:

ARIANE 5 R/B - Orbit

View from above orbital plane
View from above orbital plane
View from above satellite
View from above satellite

Ground track
Ground track

The orbit data is extracted from the following two-line orbital elements,

1 36125U 09073B   21126.91757239 0.00000000  00000-0  00000-0 0    04
2 36125  98.1397 193.5667 0025978  73.2637 286.7361 14.77160288    09
Epoch (UTC): 06 May 2021 22:01:18
Eccentricity: 0.0025978
inclination: 98.1397°
perigee height: 620 km
apogee height: 656 km
right ascension of ascending node: 193.5667°
argument of perigee: 73.2637°
revolutions per day: 14.77160288
mean anomaly at epoch: 286.7361°
orbit number at epoch: 0

The dashed part of the orbit path shows where the satellite is in the earth's shadow,  

DLR